Location: Geography Hall
(41.1195°N, 80.5706°W)
Time: 20:03:03
(UTC+00:00)

CZ-4 R/B - Pass Details

Date: 29 October 2020
Orbit: 579 x 590 km, 97.8° (Epoch: 03 December)

Event Time Altitude Azimuth Distance (km) Brightness Sun altitude
Rises 23:39:27 0° 165° (SSE) 2,806 7.8 -15.3°
Reaches altitude 10° 23:41:36 10° 164° (SSE) 1,911 7.0 -15.7°
Maximum altitude 23:45:45 84° 75° (ENE) 599 4.3 -16.5°
Drops below altitude 10° 23:49:57 10° 349° (N) 1,927 7.2 -17.3°
Sets 23:52:07 0° 349° (NNW) 2,832 8.1 -17.7°
